Regional Weather Roundup
Issued by NWS

Home | Current Version | Previous Version | Graphics & Text | Print | Product List | Glossary On
Versions: 1 2 3 4 5 6 7 8 9 10 11 12 13 14 15 16 17 18 19 20 21 22 23 24 25 26 27 28 29 30 31 32 33 34 35 36 37 38 39 40 41 42 43 44 45 46 47 48 49 50
000
ASUS43 KTOP 211259
RWRKS

WEATHER ROUNDUP FOR KANSAS
NATIONAL WEATHER SERVICE GOODLAND KS
800 AM CDT SUN SEP 21 2014

NOTE:  "FAIR" INDICATES FEW OR NO CLOUDS BELOW 12,000 FEET WITH NO
SIGNIFICANT WEATHER AND/OR OBSTRUCTIONS TO VISIBILITY.

KSZ001>006-013>018-027>032-041>047-211400-
NORTHWEST KANSAS

CITY           SKY/WX    TMP DP  RH WIND       PRES   REMARKS
GOODLAND       MOCLDY    50  46  86 NW5       30.35R
HILL CITY      PTCLDY    54  46  74 N9        30.27R
RUSSELL        CLEAR     55  50  83 N7        30.22R
$$

KSZ061>065-074>080-084>089-211400-
SOUTHWEST KANSAS

CITY           SKY/WX    TMP DP  RH WIND       PRES   REMARKS
DODGE CITY     CLEAR     56  50  80 NE9       30.24R
ELKHART          N/A     60  54  80 N7          N/A
GARDEN CITY    CLEAR     57  47  69 NE13      30.26R
GREAT BEND     CLEAR     57  52  82 N7        30.23R
LIBERAL        CLEAR     64  54  68 NE15      30.25R
$$

KSZ066>073-081>083-090>101-211400-
SOUTHEAST KANSAS

CITY           SKY/WX    TMP DP  RH WIND       PRES   REMARKS
CHANUTE        CLEAR     66  58  75 N7        30.14R
HUTCHINSON     CLEAR     61  56  83 N5        30.19R
NEWTON         CLEAR     63  54  72 NE7       30.20R
PARSONS        CLEAR     66  62  87 N5        30.13R
WICHITA INTL   PTCLDY    67  54  63 NE12      30.16R
WICHITA JABRA  CLEAR     64  56  75 NE8       30.16R
WICHITA MCCONL CLEAR     66  55  68 NE8       30.16R HAZE
WINFIELD       PTCLDY    67  56  67 NE8       30.14R
$$

KSZ007>012-019>026-033>040-048>060-102>105-211400-
NORTHEAST KANSAS

CITY           SKY/WX    TMP DP  RH WIND       PRES   REMARKS
CONCORDIA      CLEAR     55  52  89 W8        30.22R
EMPORIA        CLEAR     60  58  92 NW3       30.17R
LAWRENCE       CLEAR     54  52  93 NW6       30.16R
MANHATTAN      CLEAR     54  53  97 CALM      30.19R
OLATHE IND     CLEAR     58  54  86 NW6       30.15R
OLATHE EXE     CLEAR     60  52  74 NW5       30.14R
SALINA         PTCLDY    60  53  77 NW6       30.21R
TOPEKA BILLARD CLEAR     57  56  96 CALM      30.17R
TOPEKA FORBES  CLEAR     57  54  89 NW5       30.16R
$$


USA.gov is the U.S. government's official web portal to all federal, state and local government web resources and services.